Regional Weather Roundup
Issued by NWS Cleveland, OH

Home | Current Version | Previous Version | Graphics & Text | Print | Product List | Glossary On
Versions: 1 2 3 4 5 6 7 8 9 10 11 12 13 14 15 16 17 18 19 20 21 22 23 24 25 26 27 28 29 30 31 32 33 34 35 36 37 38 39 40 41 42 43 44 45 46 47 48 49 50
000
ASUS41 KCLE 271910
RWRCLE
OHIO REGIONAL WEATHER ROUNDUP
NATIONAL WEATHER SERVICE WILMINGTON, OH
300 PM EDT WED AUG 27 2014

NOTE: "FAIR" INDICATES FEW OR NO CLOUDS BELOW 12,000 FEET WITH NO
SIGNIFICANT WEATHER AND/OR OBSTRUCTIONS TO VISIBILITY.

OHZ001>008-015>018-024>027-034-035-043-044-272000-
   NORTHWEST OHIO

CITY           SKY/WX    TMP DP  RH WIND       PRES   REMARKS
DEFIANCE       SUNNY     82  64  54 VRB5      30.10S
FINDLAY        MOSUNNY   83  66  56 CALM      30.08S
TOLEDO EXPRESS MOSUNNY   82  61  48 N7        30.09S
TOLEDO METCALF MOSUNNY   80  63  55 VRB3      30.09F
LIMA           MOSUNNY   82  70  66 NW7       30.09F
$$

OHZ009>014-019>023-028>033-038-089-272000-
   NORTHEAST OHIO

CITY           SKY/WX    TMP DP  RH WIND       PRES   REMARKS
CLE-HOPKINS    MOSUNNY   75  65  70 N9        30.10F
CLE-LAKEFRONT  PTSUNNY   74  62  66 N12       30.07F
CUY CO. ARPT   PTSUNNY   75  66  73 NE12      30.10S
LORAIN-ELYRIA  MOSUNNY   80  67  64 NE8       30.09S
ASHTABULA      PTSUNNY   74  63  68 N9        30.09F
AKRON-CANTON   PTSUNNY   83  66  56 SW5       30.05F
WOOSTER        PTSUNNY   83  68  60 NW10      30.07F
MANSFIELD      PTSUNNY   82  68  62 NW9       30.09S
YOUNGSTOWN     PTSUNNY   81  69  67 N7        30.05F
$$

OHZ042-051>053-060>062-070>072-077>081-272000-
  SOUTHWEST OHIO

CITY           SKY/WX    TMP DP  RH WIND       PRES   REMARKS
CINC-COVINGTON MOSUNNY   89  68  49 VRB5      30.07F HX  93
CINC-LUNKEN    PTSUNNY   88  70  55 W5        30.05F HX  93
HAMILTON       MOSUNNY   88  73  61 NW6       30.06F HX  95
DAYTON         MOSUNNY   88  72  58 NW7       30.08F HX  94
WRIGHT-PAT AFB MOSUNNY   88  73  62 W6        30.06F HX  96
DAYTON GENERAL MOSUNNY   88  72  58 W7        30.07F HX  94
WILMINGTON     PTSUNNY   87  71  58 NW8       30.07F HX  93
$$

OHZ036-037-039>041-045>050-054>059-063>069-073>076-082>088-272000-
  CENTRAL AND SOUTHEAST OHIO

CITY           SKY/WX    TMP DP  RH WIND       PRES   REMARKS
COLUMBUS       PTSUNNY   88  69  53 NW7       30.04F HX  92
OSU AIRPORT    MOSUNNY   86  70  58 W7        30.06F HX  90
BOLTON FIELD   MOSUNNY   86  73  66 NW8       30.06F HX  93
RICKENBACK AFB MOSUNNY   89  65  45 W9        30.04F HX  91
NEWARK         MOSUNNY   85  72  65 W7        30.05F HX  91
MARION         MOSUNNY   81  67  62 VRB7      30.08S
LANCASTER      MOSUNNY   87  71  58 SW6       30.05F HX  93
ZANESVILLE     PTSUNNY   84  70  62 NW3       30.04F
NEW PHILLY     PTSUNNY   83  72  69 W5        30.05F
$$



USA.gov is the U.S. government's official web portal to all federal, state and local government web resources and services.